Flag for Canada Weather past 2 weeks in Gander, Newfoundland and Labrador, Canada

Now
46 °F

Mostly cloudy.


Feels Like: 41 °F
Forecast: N/A
Wind: 10 mph from Southwest

Location: Gander Int. Airport

Current Time: Sep 30, 2014 at 6:01:51 PM

Latest Report: Sep 30, 2014 at 5:30 PM


Visibility: 20 mi

Pressure: 30.14 "Hg

Humidity: 71%

Dew point: 37 °F

Location of GanderLocation

Historic Weather in Gander — Graph

°F

Gander temperature yesterday

Maximum temperature yesterday: 43 °F (at 12:30 AM)
Minimum temperature yesterday: 36 °F (at 10:30 PM)
Average temperature yesterday: 40 °F

Past Weeks' High & Low Weather Summary

 TemperatureHumidityPressure
High70 °F (Sep 21, 3:30 PM)100% (Sep 15, 7:30 PM)30.40 "Hg (Sep 15, 7:30 PM)
Low36 °F (Sep 29, 10:30 PM)39% (Sep 20, 2:30 PM)29.50 "Hg (Sep 22, 5:19 PM)
Average52 °F77%29.95 "Hg
* Reported Sep 15 4:30 PM — Sep 30 4:30 PM, Gander, Weather by CustomWeather, © 2014

Note: Actual official high and low records may vary slightly from our data, if they occured in-between our weather recording intervals... More about our weather records

Advertising

Gander weather history for previous 24 hours

 ConditionsComfort  
Time TempWeatherWind HumidityBarometerVisibility
4:30 PM
Sep 30
48 °FMostly cloudy.7 mph66%30.16 "Hg20 mi
3:30 PM48 °FMostly cloudy.10 mph62%30.18 "Hg20 mi
2:30 PM48 °FBroken clouds.14 mph66%30.20 "Hg20 mi
12:30 PM46 °FBroken clouds.12 mph62%30.26 "Hg20 mi
11:30 AM45 °FPartly sunny.13 mph61%30.28 "Hg20 mi
10:30 AM41 °FPartly sunny.13 mph66%30.31 "Hg20 mi
9:30 AM41 °FPartly sunny.7 mph66%30.32 "Hg20 mi
8:30 AM37 °FPartly sunny.6 mph70%30.32 "Hg20 mi
7:30 AM36 °FMostly cloudy.2 mph81%30.32 "Hg20 mi
6:30 AM36 °FPassing clouds.6 mph81%30.32 "Hg20 mi
5:30 AM36 °FMostly cloudy.6 mph81%30.31 "Hg20 mi
4:30 AM36 °FPartly cloudy.5 mph81%30.32 "Hg20 mi
3:30 AM36 °FPartly cloudy.6 mph87%30.31 "Hg20 mi
2:33 AM36 °FPassing clouds.6 mph81%30.31 "Hg20 mi
1:30 AM36 °FPassing clouds.7 mph87%30.30 "Hg20 mi
12:30 AM36 °FPassing clouds.7 mph75%30.29 "Hg20 mi
11:30 PM
Sep 29
36 °FPassing clouds.7 mph75%30.29 "Hg20 mi
10:30 PM36 °FPassing clouds.5 mph87%30.28 "Hg20 mi
9:30 PM37 °FPassing clouds.5 mph70%30.26 "Hg20 mi
8:30 PM37 °FPassing clouds.3 mph70%30.25 "Hg20 mi
7:30 PM39 °FPartly cloudy.5 mph65%30.23 "Hg20 mi
6:30 PM37 °FBroken clouds.6 mph70%30.21 "Hg20 mi
Weather by CustomWeather, © 2014

See weather overviewHow to use our weather pages